Location: Berkeley
(37.8716°N, 122.2727°W)
Time: 20:36:26
(UTC-07:00)

Envisat - Pass Details

Date: 18 May 2026
Orbit: 761 x 763 km, 98.4° (Epoch: 9 June)

Event Time Altitude Azimuth Distance (km) Brightness Sun altitude
Rises 03:21:18 0° 18° (NNE) 3,229 7.5 -24.3°
Reaches altitude 10° 03:23:40 10° 23° (NNE) 2,299 6.5 -24.0°
Maximum altitude 03:28:36 52° 100° (E) 943 3.5 -23.4°
Enters shadow 03:30:21 36° 154° (SSE) 1,198 3.7 -23.2°
